Home   Weather   Turin   Past weeks

Flag for Italy Past Weather in Turin, Italy — Yesterday and Last 2 Weeks

Now
64 °F

Sunny.


Feels Like: 64 °F
Forecast: 63 / 88 °F
Wind: 15 mph from West

Location: Torino / Bric Della Croce

Current Time: Jul 26, 2017 at 8:50:24 am

Latest Report: Jul 26, 2017 at 6:55 am


Visibility: 10 mi

Pressure: 29.77 "Hg

Humidity: 34%

Dew Point: 36 °F

Location of TurinLocation

Past Weather in Turin — Graph

°F

Turin Temperature Yesterday

Maximum temperature yesterday: 75 °F (at 2:55 pm)
Minimum temperature yesterday: 64 °F (at 5:55 am)
Average temperature yesterday: 69 °F

High & Low Weather Summary for the Past Weeks

 TemperatureHumidityPressure
High82 °F (Jul 13, 5:55 pm)100% (Jul 11, 6:55 am)30.24 "Hg (Jul 11, 6:55 am)
Low63 °F (Jul 16, 4:55 am)24% (Jul 24, 5:55 pm)29.68 "Hg (Jul 24, 2:55 pm)
Average71 °F67%29.97 "Hg
* Reported Jul 11 6:55 am — Jul 26 6:55 am, Turin. Weather by CustomWeather, © 2017

Note: Actual official high and low records may vary slightly from our data, if they occured in-between our weather recording intervals... More about our weather records

Advertising

Turin Weather History for the Previous 24 Hours

Scroll right to see more
 ConditionsComfort  
Time TempWeatherWind HumidityBarometerVisibility
6:55 am
Wed, Jul 26
64 °FSunny.15 mph34%29.77 "Hg10 mi
5:55 am64 °FClear.20 mph34%29.77 "Hg10 mi
4:55 am64 °FClear.15 mph34%29.77 "Hg10 mi
3:55 am64 °FPassing clouds.21 mph34%29.77 "HgN/A
2:55 am66 °FClear.15 mph32%29.77 "Hg10 mi
1:55 am66 °FClear.7 mph32%29.77 "Hg10 mi
12:55 am68 °FClear.7 mph30%29.77 "Hg10 mi
11:55 pm
Tue, Jul 25
68 °FClear.9 mph30%29.77 "Hg10 mi
10:55 pm68 °FClear.10 mph28%29.77 "Hg10 mi
9:55 pm68 °FClear.13 mph28%29.74 "Hg10 mi
8:55 pm70 °FPassing clouds.18 mph27%29.71 "HgN/A
7:55 pm72 °FPassing clouds.17 mph29%29.71 "HgN/A
6:55 pm73 °FPassing clouds.18 mph25%29.71 "HgN/A
5:55 pm75 °FPassing clouds.13 mph25%29.71 "HgN/A
4:55 pm75 °FPassing clouds.13 mph24%29.71 "HgN/A
3:55 pm75 °FSunny.17 mph24%29.74 "Hg10 mi
2:55 pm75 °FPassing clouds.15 mph25%29.74 "HgN/A
1:55 pm73 °FSunny.9 mph29%29.74 "Hg10 mi
12:55 pm72 °FSunny.2 mph33%29.77 "Hg10 mi
11:55 am70 °FSunny.5 mph35%29.77 "Hg10 mi
10:55 am70 °FSunny.No wind40%29.77 "Hg10 mi
9:55 am68 °FSunny.3 mph38%29.77 "Hg10 mi
8:55 am66 °FSunny.7 mph37%29.77 "Hg10 mi
Weather by CustomWeather, © 2017

See weather overviewHow to use our weather pages